Weather History for Billings, MT

Change the Weather History Date:

Thursday, December 27, 2012

  Actual Average Record
Temperature  
Mean Temperature 13 °F 26 °F  
Max Temperature 21 °F 35 °F 68 °F (1980)
Min Temperature 4 °F 17 °F -11 °F (1941)
Degree Days  
Heating Degree Days 52 39  
Month to date heating degree days 982 1033  
Since 1 July heating degree days 2364 2661  
Cooling Degree Days 0 0  
Month to date cooling degree days 0 0  
Year to date cooling degree days 958 636  
Moisture  
Dew Point 9 °F    
Average Humidity 80    
Maximum Humidity 91    
Minimum Humidity 68    
Precipitation  
Precipitation 0.00 in 0.02 in 0.18 in (1981)
Month to date precipitation 0.27 0.44  
Year to date precipitation 7.13 13.60  
Snow  
Snow 0.00 in 0.30 in 2.00 in (1946)
Month to date snowfall 4.7 7.0  
Since 1 July snowfall 16.3 18.7  
Snow Depth 3.00 in    
Sea Level Pressure  
Sea Level Pressure 30.02 in    
Wind  
Wind Speed 6 mph (SW)    
Max Wind Speed 21 mph    
Max Gust Speed 25 mph    
Visibility 10 miles    
Events      
T = Trace of Precipitation, MM = Missing Value Source: NWS Daily Summary

Daily Weather History Graph

Daily Weather History Graph

Search for Another Location

Airport:

Trip Planner

Search our weather history database for the weather conditions in past years. The results will help you decide how hot, cold, wet, or windy it might be!

Date:

Astronomy

Dec. 27, 2012 Rise Set
Actual Time 7:54 AM MST 4:36 PM MST
Civil Twilight 7:20 AM MST 5:10 PM MST
Nautical Twilight 6:42 AM MST 5:48 PM MST
Astronomical Twilight 6:06 AM MST 6:24 PM MST
Moon 4:24 PM MST (12/27) 7:06 AM MST (12/27)
Length of Visible Light 9h 50m
Length of Day
8h 41m
Full, 100% of the Moon is Illuminated
Dec 27
Full
Dec 28
Full
Jan 4
Last Quarter
Jan 11
New
Jan 18
First Quarter

Hourly Weather History & Observations

Time (MST) Temp. Windchill Dew Point Humidity Pressure Visibility Wind Dir Wind Speed Gust Speed Precip Events Conditions
12:53 AM 6.1 °F -0.9 °F 1.9 °F 83% 29.99 in 10.0 mi WNW 3.5 mph - N/A   Mostly Cloudy
1:53 AM 10.0 °F - 6.1 °F 84% 29.99 in 10.0 mi Calm Calm - N/A   Overcast
2:53 AM 9.0 °F - 6.1 °F 88% 30.01 in 9.0 mi Calm Calm - N/A   Overcast
3:53 AM 9.0 °F - 6.1 °F 88% 30.01 in 9.0 mi Calm Calm - N/A   Overcast
4:53 AM 8.1 °F - 5.0 °F 87% 30.02 in 9.0 mi Calm Calm - N/A   Mostly Cloudy
5:53 AM 7.0 °F 0.1 °F 3.9 °F 87% 30.03 in 10.0 mi NNE 3.5 mph - N/A   Overcast
6:53 AM 7.0 °F 0.1 °F 3.9 °F 87% 30.04 in 10.0 mi North 3.5 mph - N/A   Overcast
7:53 AM 8.1 °F - 3.9 °F 83% 30.05 in 10.0 mi Calm Calm - N/A   Overcast
8:53 AM 8.1 °F - 5.0 °F 87% 30.07 in 10.0 mi Calm Calm - N/A   Overcast
9:53 AM 10.9 °F - 6.1 °F 81% 30.08 in 10.0 mi Calm Calm - N/A   Overcast
10:53 AM 12.2 °F - 8.6 °F 85% 29.88 in 10.0 mi Calm Calm - N/A   Mostly Cloudy
11:53 AM 15.1 °F 9.4 °F 10.0 °F 80% 30.06 in 10.0 mi SSW 3.5 mph - N/A   Scattered Clouds
12:53 PM 17.1 °F 11.7 °F 10.9 °F 77% 30.03 in 10.0 mi South 3.5 mph - N/A   Scattered Clouds
1:53 PM 21.2 °F - 12.2 °F 68% 29.85 in 10.0 mi Calm Calm - N/A   Partly Cloudy
2:53 PM 19.0 °F 12.3 °F 12.0 °F 74% 30.03 in 10.0 mi SSW 4.6 mph - N/A   Clear
3:53 PM 19.0 °F 8.2 °F 12.0 °F 74% 30.03 in 10.0 mi SSW 9.2 mph - N/A   Clear
4:53 PM 17.6 °F 8.2 °F 10.4 °F 73% 29.88 in 10.0 mi SW 6.9 mph - N/A   Partly Cloudy
5:53 PM 17.1 °F 5.8 °F 10.9 °F 77% 30.06 in 10.0 mi SSW 9.2 mph - N/A   Clear
6:53 PM 17.1 °F 4.3 °F 12.0 °F 81% 30.07 in 9.0 mi SW 11.5 mph - N/A   Clear
7:53 PM 18.0 °F 4.8 °F 12.9 °F 81% 30.06 in 9.0 mi SW 12.7 mph - N/A   Mostly Cloudy
8:53 PM 19.0 °F 5.0 °F 14.0 °F 81% 30.06 in 10.0 mi SW 15.0 mph - N/A   Mostly Cloudy
9:53 PM 19.9 °F 4.8 °F 12.9 °F 74% 30.06 in 10.0 mi WSW 18.4 mph - N/A   Scattered Clouds
10:53 PM 19.9 °F 4.8 °F 14.0 °F 78% 30.06 in 10.0 mi WSW 18.4 mph - N/A   Scattered Clouds
11:53 PM 19.9 °F 4.3 °F 14.0 °F 78% 30.05 in 10.0 mi WSW 19.6 mph - N/A   Overcast